[[{"header":{"parameterUnit":"m.s-1","parameterCategory":1,"la1":30.2991,"la2":30.254,"lo1":-89.0895,"lo2":-89.0444,"dy":0.0017,"dx":0.0017,"nx":28,"ny":28,"refTime":"2024-05-17T09:00:00:Z","depth":0,"parameterNumber":2,"parameterNumberName":"U-component_of_WINDS"},"data":[0,0,0,0,0,0,0,0,0,0,0,0,0,0,0,0,0,0,0,0,0,0,0,0,0,0,0,0,0,0,0,0,0,0,0,0,0,0,0,0,0,0,0,0,0,0,0,0,0,0,0,0,0,0,0,0,0,0,-10.3098,-10.3099,0,-10.3169,-10.317,-10.317,-10.3024,-10.3019,-10.3015,-10.301,-10.3083,-10.3089,-10.3095,0,0,0,0,0,0,0,0,0,0,0,0,0,-10.2835,-10.284,-10.3098,-10.3099,-10.31,-10.3169,-10.317,-10.3171,-10.3025,-10.3019,-10.3013,-10.3008,-10.308,-10.3088,-10.3096,0,0,0,0,0,0,0,0,0,0,0,0,0,-10.2932,-10.2842,-10.3098,-10.3035,-10.303,-10.3168,-10.317,-10.3171,-10.3026,-10.3019,-10.3012,-10.3005,-10.3078,-10.3087,-10.3097,-10.3299,0,0,-10.3126,-10.313,0,0,0,0,0,0,0,0,-10.2926,-10.2942,-10.3044,-10.304,-10.3035,-10.308,-10.3103,-10.3214,-10.3028,-10.3028,-10.301,-10.3002,-10.3088,-10.3096,-10.3125,-10.3302,-10.3305,-10.3127,-10.3132,-10.3137,-10.3139,0,0,0,0,0,0,0,-10.292,-10.2938,-10.3126,-10.3045,-10.304,-10.3003,-10.3009,-10.3123,-10.3097,-10.3027,-10.3017,-10.3027,-10.3084,-10.3116,-10.3125,-10.3306,-10.3126,-10.3135,-10.3141,-10.3144,-10.3648,-10.3656,0,0,0,0,0,0,-10.2921,-10.2933,-10.3123,-10.3128,-10.2962,-10.3014,-10.302,-10.3073,-10.3095,-10.3092,-10.3033,-10.302,-10.3103,-10.3114,-10.3127,-10.3361,-10.3136,-10.3145,-10.3151,-10.3641,-10.365,-10.3658,0,0,0,0,0,0,-10.2916,-10.294,-10.3121,-10.3028,-10.3048,-10.3026,-10.3086,-10.3078,-10.311,-10.31,-10.3094,-10.3071,-10.3098,-10.3114,-10.3256,-10.3361,-10.315,-10.3158,-10.3632,-10.3644,-10.3654,-10.3832,0,0,0,0,0,0,-10.2909,-10.2939,-10.3015,-10.3031,-10.3054,-10.3249,-10.3093,-10.3085,-10.3127,-10.311,-10.3134,-10.3131,-10.3094,-10.3243,-10.3266,-10.3371,-10.3166,-10.3622,-10.3637,-10.3651,-10.3817,-10.3848,-10.3875,0,0,0,0,0,-10.29,-10.3063,-10.302,-10.3044,-10.3149,-10.3255,-10.3268,-10.3222,-10.3136,-10.3212,-10.3205,-10.313,-10.3348,-10.3258,-10.3283,-10.3393,-10.3615,-10.3633,-10.365,-10.3803,-10.3842,-10.3875,0,0,0,0,0,0,-10.3061,-10.3064,-10.3016,-10.3189,-10.3223,-10.323,-10.3324,-10.3265,-10.3324,-10.3306,-10.3247,-10.3254,-10.3406,-10.3415,-10.3315,-10.3587,-10.3467,-10.349,-10.3575,-10.3612,-10.3641,-10.3633,-10.3174,0,0,0,0,0,-10.3117,-10.3203,-10.3201,-10.3354,-10.3374,-10.3347,-10.3392,-10.3354,-10.3386,-10.3399,-10.3403,-10.3438,-10.3513,-10.3564,-10.3634,-10.382,-10.382,-10.3907,-10.3936,-10.3961,-10.3979,-10.4074,-10.4111,-10.3715,-10.3715,-10.3715,0,0,-10.3232,-10.3244,-10.3302,-10.3387,-10.3408,-10.3497,-10.336,-10.3461,-10.3526,-10.3415,-10.3547,-10.3552,-10.3587,-10.3751,-10.3823,-10.3762,-10.409,-10.3983,-10.4002,-10.4007,-10.4095,-10.4133,-10.4166,-10.3727,-10.3725,-10.3723,0,0,-10.3485,-10.3507,-10.3633,-10.3658,-10.3693,-10.3674,-10.3706,-10.3722,-10.372,-10.3854,-10.3771,-10.3848,-10.3981,-10.4007,-10.4039,-10.4304,-10.4235,-10.433,-10.448,-10.4573,-10.4604,-10.4631,-10.4721,-10.4754,-10.4349,-10.435,-10.435,0,-10.3623,-10.3755,-10.3706,-10.3812,-10.385,-10.3755,-10.3882,-10.3909,-10.3965,-10.3993,-10.3925,-10.4087,-10.4105,-10.4271,-10.4335,-10.4366,-10.4397,-10.4323,-10.4604,-10.4631,-10.4655,-10.474,-10.4774,-10.436,-10.4359,-10.4358,-10.4357,0,-10.392,-10.4014,-10.4112,-10.4167,-10.4218,-10.4334,-10.4302,-10.4359,-10.4317,-10.4306,-10.4441,-10.4459,-10.4528,-10.4566,-10.4528,-10.4727,-10.4687,-10.4614,-10.4489,-10.4704,-10.4782,-10.4815,-10.4376,-10.4372,-10.4369,-10.4366,0,0,-10.4272,-10.43,-10.4337,-10.4359,-10.4392,-10.4462,-10.4575,-10.4642,-10.4689,-10.4733,-10.4823,-10.4938,-10.4869,-10.4904,-10.4868,-10.4951,-10.5154,-10.4865,-10.4865,-10.4913,-10.5369,-10.542,-10.5458,-10.5111,-10.5118,-10.5122,-10.5364,0,-10.4519,-10.471,-10.467,-10.4857,-10.494,-10.4852,-10.4949,-10.4979,-10.4973,-10.5042,-10.5035,-10.5114,-10.502,-10.504,-10.5119,-10.5113,-10.5243,-10.5096,-10.519,-10.5194,-10.5177,-10.55,-10.5554,-10.5781,-10.5395,-10.54,-10.5404,0,-10.4831,-10.4884,-10.508,-10.5096,-10.513,-10.5218,-10.5275,-10.5344,-10.5376,-10.5365,-10.5406,-10.5354,-10.5463,-10.5344,-10.5492,-10.5392,-10.543,-10.5433,-10.5441,-10.5442,-10.5307,-10.5504,-10.5853,-10.5884,-10.5453,-10.5449,-10.5445,0,-10.5059,-10.5182,-10.5313,-10.5336,-10.5361,-10.5424,-10.5438,-10.5463,-10.5506,-10.5557,-10.5584,-10.5649,-10.5682,-10.5733,-10.5699,-10.5617,-10.5852,-10.5731,-10.5843,-10.5843,-10.589,-10.5886,-10.6243,-10.5927,-10.5926,-10.5926,-10.5925,0,-10.5335,-10.5456,-10.5415,-10.5496,-10.5629,-10.5583,-10.5716,-10.5719,-10.5742,-10.582,-10.5752,-10.5826,-10.578,-10.5852,-10.5827,-10.5951,-10.5969,-10.596,-10.5951,-10.5962,-10.5963,-10.5981,-10.5961,-10.5935,-10.5933,-10.5931,-10.5929,0,-10.5609,-10.5588,-10.5724,-10.5738,-10.5744,-10.5841,-10.5851,-10.5925,-10.5915,-10.6014,-10.6035,-10.6018,-10.6098,-10.6072,-10.6158,-10.6141,-10.6297,-10.6271,-10.6285,-10.6276,-10.6387,-10.6374,-10.6762,-10.6808,-10.6469,-10.6472,-10.6475,0,-10.5783,-10.5874,-10.5897,-10.5944,-10.5962,-10.6041,-10.6083,-10.6043,-10.6091,-10.6134,-10.6203,-10.6277,-10.6333,-10.6465,-10.646,-10.6525,-10.6495,-10.6628,-10.6504,-10.6512,-10.6489,-10.6481,-10.6488,-10.6649,-10.6653,-10.6657,-10.6659,0,-10.609,-10.6075,-10.614,-10.6202,-10.6256,-10.6303,-10.6343,-10.6386,-10.6348,-10.6405,-10.6486,-10.653,-10.6618,-10.669,-10.675,-10.6762,-10.6703,-10.6699,-10.6727,-10.6736,-10.6737,-10.6731,-10.6344,-10.6689,-10.6686,-10.6683,-10.6682,-10.6681,-10.6315,-10.639,-10.6417,-10.6492,-10.6518,-10.6558,-10.6627,-10.6625,-10.6692,-10.6759,-10.6733,-10.6825,-10.6854,-10.6927,-10.6949,-10.7019,-10.6968,-10.701,-10.702,-10.7029,-10.704,-10.6733,-10.7031,-10.703,-10.7029,-10.7028,-10.7028,0,-10.6612,-10.6626,-10.6696,-10.6754,-10.6812,-10.6756,-10.6798,-10.6849,-10.6931,-10.6964,-10.7021,-10.7112,-10.7183,-10.7185,-10.7251,-10.7307,-10.7281,-10.7324,-10.7316,-10.7319,-10.7085,-10.7051,-10.7344,-10.7344,-10.7344,-10.7344,-10.7343,-10.7343,-10.6774,-10.6896,-10.6886,-10.7021,-10.7034,-10.7123,-10.7151,-10.7186,-10.7211,-10.7317,-10.7375,-10.7377,-10.7396,-10.7463,-10.7525,-10.7523,-10.7547,-10.76,-10.7588,-10.7368,-10.7336,-10.7306,-10.7273,-10.7608,-10.7608,-10.7815,-10.7817,-10.7818]},{"header":{"parameterUnit":"m.s-1","parameterCategory":1,"la1":30.2991,"la2":30.254,"lo1":-89.0895,"lo2":-89.0444,"dy":0.0017,"dx":0.0017,"nx":28,"ny":28,"refTime":"2024-05-17T09:00:00:Z","depth":0,"parameterNumber":3,"parameterNumberName":"V-component_of_WINDS"},"data":[0,0,0,0,0,0,0,0,0,0,0,0,0,0,0,0,0,0,0,0,0,0,0,0,0,0,0,0,0,0,0,0,0,0,0,0,0,0,0,0,0,0,0,0,0,0,0,0,0,0,0,0,0,0,0,0,0,0,2.5519,2.5519,0,2.543,2.5429,2.5428,2.5444,2.5446,2.5448,2.5449,2.5344,2.5339,2.5335,0,0,0,0,0,0,0,0,0,0,0,0,0,2.5691,2.5688,2.552,2.5518,2.5517,2.543,2.5429,2.5428,2.5444,2.5446,2.5448,2.545,2.5345,2.534,2.5335,0,0,0,0,0,0,0,0,0,0,0,0,0,2.561,2.5687,2.552,2.5515,2.5514,2.5431,2.5429,2.5428,2.5444,2.5446,2.5449,2.5451,2.5347,2.534,2.5334,2.5245,0,0,2.5314,2.5311,0,0,0,0,0,0,0,0,2.5615,2.5604,2.5517,2.5515,2.5514,2.5451,2.5451,2.5366,2.5443,2.547,2.5449,2.5452,2.5376,2.5368,2.5345,2.524,2.5236,2.5314,2.531,2.5307,2.5305,0,0,0,0,0,0,0,2.562,2.5608,2.5484,2.5516,2.5514,2.5513,2.5505,2.5435,2.541,2.5468,2.5469,2.5459,2.5376,2.5351,2.5343,2.5234,2.5314,2.5308,2.5304,2.5302,2.5049,2.5047,0,0,0,0,0,0,2.5629,2.5612,2.5487,2.5481,2.5572,2.5508,2.5499,2.5469,2.5411,2.5405,2.5457,2.546,2.5361,2.535,2.5339,2.523,2.5307,2.5301,2.5297,2.5052,2.5049,2.5046,0,0,0,0,0,0,2.5633,2.5618,2.549,2.5547,2.5531,2.5503,2.5469,2.5466,2.5441,2.5403,2.5397,2.5437,2.5363,2.5348,2.5269,2.5227,2.5298,2.5292,2.5055,2.5051,2.5047,2.5013,0,0,0,0,0,0,2.5638,2.5619,2.5588,2.5546,2.5528,2.5426,2.5467,2.5462,2.5432,2.5435,2.5383,2.5377,2.5364,2.5279,2.5263,2.5219,2.5287,2.5059,2.5054,2.5049,2.5017,2.5008,2.4999,0,0,0,0,0,2.5644,2.558,2.5587,2.5572,2.549,2.5423,2.5412,2.5403,2.5428,2.5395,2.537,2.5378,2.5235,2.527,2.5252,2.5206,2.5062,2.5055,2.5049,2.5021,2.501,2.5,0,0,0,0,0,0,2.5613,2.5574,2.5582,2.5503,2.5467,2.5427,2.5384,2.5391,2.5343,2.5348,2.5333,2.5321,2.5241,2.5215,2.5256,2.5116,2.5151,2.5141,2.5136,2.5124,2.5116,2.5122,2.5282,0,0,0,0,0,2.5598,2.5552,2.5518,2.5452,2.5434,2.5412,2.5383,2.5379,2.5339,2.5323,2.5292,2.5249,2.5194,2.5158,2.5105,2.5014,2.5001,2.4973,2.4964,2.4957,2.4948,2.4895,2.4881,2.5025,2.5025,2.5025,0,0,2.5564,2.5537,2.5508,2.5445,2.5417,2.5365,2.5399,2.5343,2.5303,2.5313,2.5237,2.5213,2.5164,2.5078,2.5038,2.5054,2.4905,2.4949,2.4944,2.4938,2.4887,2.4873,2.4861,2.5021,2.5021,2.5022,0,0,2.5477,2.5454,2.5395,2.5367,2.5325,2.5311,2.5297,2.5255,2.5241,2.5166,2.5172,2.5121,2.5028,2.4992,2.4962,2.4861,2.4865,2.4843,2.4796,2.4744,2.4733,2.4723,2.4684,2.4671,2.4834,2.4834,2.4834,0,2.544,2.5367,2.5363,2.5307,2.5277,2.5288,2.5226,2.5197,2.5138,2.5115,2.5135,2.5018,2.4985,2.489,2.4866,2.4842,2.4821,2.4849,2.4736,2.4726,2.4716,2.4679,2.4665,2.4832,2.4832,2.4832,2.4833,0,2.5322,2.5271,2.5227,2.5175,2.5141,2.5082,2.5065,2.5029,2.5028,2.501,2.4932,2.4894,2.4833,2.481,2.4806,2.4713,2.4724,2.474,2.4774,2.47,2.4665,2.4651,2.4828,2.4829,2.483,2.4831,0,0,2.5212,2.516,2.5144,2.5119,2.5074,2.5032,2.4971,2.4917,2.4885,2.4843,2.479,2.4711,2.4725,2.4691,2.4683,2.4638,2.4557,2.4659,2.4657,2.4639,2.4449,2.4436,2.442,2.4561,2.4558,2.4556,2.4452,0,2.512,2.5019,2.5013,2.492,2.4871,2.4879,2.4826,2.479,2.4771,2.4723,2.4701,2.4644,2.4669,2.4648,2.4604,2.4577,2.4518,2.4584,2.4506,2.4503,2.4517,2.4402,2.4389,2.4293,2.4439,2.4436,2.4435,0,2.4999,2.4958,2.4861,2.4822,2.4801,2.4754,2.4702,2.4657,2.4614,2.4604,2.4566,2.4564,2.4497,2.4535,2.444,2.4485,2.4452,2.4434,2.443,2.442,2.4464,2.4388,2.4262,2.4247,2.4413,2.4415,2.4417,0,2.4928,2.4848,2.4779,2.4758,2.471,2.4677,2.4654,2.4615,2.4581,2.4534,2.4512,2.4456,2.4424,2.4379,2.436,2.439,2.4265,2.4302,2.425,2.425,2.4222,2.4224,2.4088,2.4204,2.4204,2.4205,2.4205,0,2.4824,2.4764,2.4746,2.4704,2.4635,2.4627,2.4557,2.4536,2.45,2.445,2.4452,2.4404,2.4384,2.4331,2.4315,2.4237,2.4223,2.4209,2.4205,2.4208,2.4209,2.4185,2.419,2.4201,2.4202,2.4202,2.4203,0,2.4733,2.4719,2.4644,2.4606,2.4595,2.4545,2.451,2.4466,2.4449,2.4385,2.437,2.434,2.4278,2.4256,2.4178,2.4168,2.4077,2.4079,2.4093,2.4091,2.404,2.4044,2.3882,2.3859,2.3992,2.3991,2.399,0,2.4668,2.4622,2.4579,2.4548,2.4526,2.4475,2.4442,2.4431,2.4395,2.4343,2.4304,2.4244,2.4195,2.4093,2.4062,2.4002,2.4001,2.3949,2.3992,2.3996,2.3998,2.4,2.3994,2.394,2.3939,2.3938,2.3937,0,2.4553,2.4548,2.4503,2.4454,2.4416,2.4376,2.4337,2.431,2.4292,2.4251,2.419,2.4152,2.4075,2.4013,2.3952,2.3923,2.3924,2.3924,2.3908,2.3909,2.3919,2.3911,2.4069,2.3927,2.3928,2.3929,2.3929,2.3929,2.4471,2.443,2.4394,2.4343,2.4313,2.4276,2.4234,2.4212,2.4162,2.4102,2.4096,2.4029,2.3984,2.3903,2.3871,2.3815,2.3829,2.3807,2.3801,2.3795,2.379,2.3929,2.3804,2.3804,2.3804,2.3804,2.3804,0,2.4355,2.4333,2.4286,2.4233,2.4191,2.4202,2.4158,2.4121,2.4064,2.4024,2.3977,2.3904,2.3844,2.3808,2.3746,2.3707,2.3706,2.3691,2.3692,2.3685,2.3783,2.3802,2.3693,2.3693,2.3693,2.3693,2.3693,2.3693,2.429,2.4221,2.4212,2.4126,2.4102,2.404,2.4014,2.3979,2.3947,2.3868,2.3819,2.3798,2.3757,2.3692,2.3636,2.3626,2.3602,2.3585,2.3576,2.3667,2.3679,2.369,2.3707,2.358,2.358,2.3483,2.3482,2.3481]}]]